Regional Weather Roundup
Issued by NWS

Home | Current Version | Previous Version | Text Only | Print | Product List | Glossary Off
Versions: 1 2 3 4 5 6 7 8 9 10 11 12 13 14 15 16 17 18 19 20 21 22 23 24 25 26 27

000
ASUS45 KBOU 181206
RWRCO

WEATHER ROUNDUP FOR COLORADO
NATIONAL WEATHER SERVICE DENVER/BOULDER CO
600 AM MDT FRI APR 18 2014

NOTE: "FAIR" INDICATES FEW OR NO CLOUDS BELOW 12000 FEET WITH NO
SIGNIFICANT WEATHER AND/OR OBSTRUCTIONS TO VISIBILITY.

COZ001>005-013-030-031-181300-
...NORTHWEST COLORADO...

CITY           SKY/WX    TMP DP  RH WIND       PRES   REMARKS
CRAIG          CLEAR     38  25  59 VRB6      30.05S
HAYDEN         CLEAR     36  23  60 E13       30.08F
MEEKER         PTCLDY    32  26  78 NE6       30.05F WCI  26
MOUNT WERNER   CLEAR     37  14  38 SE14      30.22F
STEAMBOAT SPGS CLEAR     31  22  72 CALM      30.10S
WALDEN         PTCLDY    30  21  69 SE8       30.11F WCI  23
$$

COZ006>008-011-181300-
...WEST CENTRAL VALLEYS...

CITY           SKY/WX    TMP DP  RH WIND       PRES   REMARKS
GRAND JUNCTION PTCLDY    45  26  47 E13       30.00F
MONTROSE       PTCLDY    40  27  59 S6        30.09F
EAGLE          CLEAR     30  27  86 CALM      30.17R
RIFLE          CLEAR     36  26  67 SW3       30.08S
DELTA          PTCLDY    42  28  58 E6        30.07F
NUCLA            N/A     41  27  56 E6        30.11S
$$

COZ017>023-064>068-181300-
...SOUTHWEST COLORADO...

CITY           SKY/WX    TMP DP  RH WIND       PRES   REMARKS
DURANGO        PTCLDY    30  17  58 NE3       30.16F
CORTEZ         CLEAR     31  23  72 N3        30.09F
PAGOSA SPRINGS PTCLDY    30  21  68 CALM      30.23S
TELLURIDE      PTCLDY    41  23  48 E5        30.21F
WOLF CREEK PAS CLEAR     28  18  64 SW18      30.35S WCI  16
$$

COZ009-010-012-014-032>034-037-058>063-181300-
...CENTRAL COLORADO...

CITY           SKY/WX    TMP DP  RH WIND       PRES   REMARKS
ASPEN          PTCLDY    34  21  59 CALM      30.15S
BUENA VISTA    CLEAR     31  22  68 SW3       30.20R
COPPER MTN     PTCLDY    34  18  51 S14G23    30.32S WCI  24
BERTHOUD PASS  FAIR      28  19  69 W26       30.31F WCI  13
COTTONWOOD PAS CLEAR     41  18  38 NW3       30.25S
GUNNISON       CLEAR     25  18  74 SE5       30.26S WCI  19
KREMMLING      CLEAR     30  23  74 CALM      30.18R
LEADVILLE      CLEAR     24  15  68 NE3       30.24S
MONARCH PASS   CLEAR     30  18  59 SW16      30.44R WCI  19
SALIDA         CLEAR     39  26  58 N9        30.25S
SUNLIGHT       CLEAR     34  23  64 CALM      30.26S
WILKERSON PASS PTCLDY    32  18  55 W14G23    30.30S WCI  22
$$

COZ069>075-181300-
...SAN LUIS VALLEY/SANGRE DE CRISTO MOUNTAINS...

CITY           SKY/WX    TMP DP  RH WIND       PRES   REMARKS
ALAMOSA        CLEAR     32  27  81 S5        30.21R WCI  27
LA VETA PASS   NOT AVBL
SAGUACHE       NOT AVBL
$$

COZ035-036-038>040-181300-
...NORTHERN COLORADO FRONT RANGE...

CITY           SKY/WX    TMP DP  RH WIND       PRES   REMARKS
DENVER INTL AP MOCLDY    49  25  39 SW16      29.99S
DMNS CITY PARK   N/A     47  27  46 SE6       29.99S
AURORA         PTCLDY    43  27  52 S10       30.01S
FRONT RANGE AP NOT AVBL
ERIE MUNI ARPT PTCLDY    35  32  87 CALM      29.98S
BOULDER MUN AP PTCLDY    41  32  70 CALM      29.98F
CENTENNIAL     PTCLDY    43  25  49 S8        30.01S
BROOMFIELD     MOCLDY    43  27  52 S3        29.99S
FORT COLLINS   MOCLDY    34  28  80 N3        30.00S
LONGMONT       MOCLDY    35  30  80 CALM      30.00S
$$

COZ041-046-047-076>085-087-088-181300-
...PIKES PEAK/PALMER DIVIDE AND SOUTHERN FOOTHILLS...

CITY           SKY/WX    TMP DP  RH WIND       PRES   REMARKS
COLO. SPRINGS  MOCLDY    35  30  82 N9        30.07S WCI  28
A. F. ACADEMY  CLEAR     34  29  82 VRB7      30.06F WCI  28
ELLICOTT       NOT AVBL
FALCON         CLEAR     32  29  90 CALM      30.09S
FORT CARSON    CLEAR     33  31  92 NW3       30.06S
LIMON          PTCLDY    24  23  96 CALM      30.06S
MONUMENT HILL  CLEAR     39  23  52 SW14      30.07S
TRINIDAD       CLEAR     42  31  64 W20       30.09R
$$

COZ042>045-048>051-090-091-181300-
...NORTHEAST COLORADO...

CITY           SKY/WX    TMP DP  RH WIND       PRES   REMARKS
GREELEY ARPT   PTCLDY    30  23  74 NW7       29.99S WCI  23
AKRON          CLEAR     40  33  76 SW13      29.98F
BURLINGTON     CLEAR     36  33  89 S16       30.06F
WRAY           CLEAR     39  34  82 S21G26    30.02F
STERLING       CLEAR     36  36 100 CALM      29.99R
HOLYOKE        CLEAR     37  34  87 S9        30.01S
FORT MORGAN    CLEAR     35  32  90 CALM      30.00S
$$

COZ086-089-092>099-181300-
...SOUTHEAST COLORADO...

CITY           SKY/WX    TMP DP  RH WIND       PRES   REMARKS
PUEBLO         CLEAR     36  33  89 N6        30.05F
LA JUNTA       CLEAR     40  35  83 SW9       30.04S
LAMAR          CLEAR     40  34  79 S10       30.04F
SPRINGFIELD      N/A     40  35  83 S22G30    30.08F
$$



USA.gov is the U.S. government's official web portal to all federal, state and local government web resources and services.